FW6283 Weather Reports


time (UTC)temp
F
wind
direction
speed
knots
gust
knots
rain 1hr
in
rain 24hr
in
rain mn
in
humidity
%
barometer
mb
20260508203021 56 13 2.6 8.7 0.00 0.24 0.01 54 1001.4
20260508201525 59 356 4.3 10.4 0.00 0.24 0.01 52 1001.3
20260508200017 57 352 4.3 9.6 0.00 0.24 0.01 59 1001.1
20260508194516 57 16 7.0 13.0 0.00 0.54 0.01 56 1001.0
20260508193013 57 4 6.1 13.9 0.00 0.54 0.01 56 1000.7
20260508191516 56 59 3.5 12.2 0.00 0.54 0.01 68 1000.7
20260508190012 56 53 5.2 13.0 0.00 0.86 0.01 63 1000.6
20260508184507 54 44 3.5 9.6 0.00 0.86 0.01 77 1001.0
20260508183008 54 52 1.7 11.3 0.00 0.86 0.01 78 1000.8
20260508181505 55 22 3.5 9.6 0.00 0.86 0.01 76 1000.8
20260508180004 56 92 4.3 8.7 0.00 0.86 0.01 76 1000.8
20260508174620 53 220 1.7 5.2 0.00 0.86 0.01 82 1001.0
20260508173100 51 177 3.5 7.8 0.00 0.86 0.01 80 1001.3
20260508171557 51 175 3.5 7.8 0.00 0.86 0.01 85 1001.3
20260508170059 50 160 3.5 7.8 0.00 0.86 0.01 84 1001.3
20260508164556 49 150 4.3 7.8 0.00 0.86 0.01 85 1001.3
20260508163056 49 189 3.5 7.8 0.00 0.86 0.01 84 1001.4
20260508161556 50 195 3.5 7.0 0.00 0.86 0.01 82 1001.2
20260508160055 51 166 3.5 8.7 0.00 0.86 0.01 83 1001.2
20260508154554 51 168 4.3 8.7 0.00 0.86 0.01 83 1001.4
20260508153054 52 157 2.6 7.8 0.00 0.86 0.01 84 1001.4
20260508151548 51 171 2.6 6.1 0.00 0.86 0.01 87 1001.7
20260508150046 49 143 2.6 7.0 0.00 0.86 0.01 88 1001.8
20260508144545 49 195 2.6 7.0 0.00 0.86 0.01 89 1001.9
20260508143048 50 166 3.5 7.0 0.00 0.86 0.01 91 1002.1
20260508141554 49 151 2.6 5.2 0.00 0.86 0.01 93 1002.2
20260508140041 50 143 2.6 6.1 0.00 0.86 0.01 94 1002.8
20260508134544 50 159 2.6 7.0 0.00 0.86 0.01 96 1002.6
20260508133032 49 166 1.7 6.1 0.00 0.86 0.01 97 1002.4
20260508131527 47 172 3.5 6.1 0.00 0.86 0.01 98 1002.3
20260508130024 47 184 0.9 4.3 0.00 0.86 0.01 99 1002.5
20260508124521 47 162 1.7 4.3 0.00 0.88 0.01 100 1002.3
20260508123017 45 120 0.0 1.7 0.00 0.88 0.01 99 1002.2
20260508121519 45 112 0.0 2.6 0.00 0.88 0.01 99 1002.6
20260508120115 46 92 1.7 3.5 0.00 0.88 0.01 100 1002.7
20260508114512 46 10 1.7 4.3 0.00 0.94 0.01 100 1002.3
20260508113014 46 21 0.0 2.6 0.00 0.94 0.01 100 1002.5
20260508111504 44 270 0.0 0.0 0.00 0.94 0.01 100 1002.5
20260508110008 42 247 0.0 0.0 0.00 0.94 0.01 100 1002.9
20260508104501 42 247 0.0 0.0 0.00 0.94 0.01 100 1002.8
20260508103059 42 246 0.0 0.0 0.00 0.94 0.01 100 1003.0
20260508101600 41 246 0.0 0.0 0.00 0.94 0.01 100 1002.7
20260508100055 41 283 0.0 0.0 0.01 0.94 0.01 100 1002.5
20260508094611 41 283 0.0 0.0 0.01 0.94 0.01 100 1002.6
20260508093050 40 244 0.0 2.6 0.01 0.94 0.01 100 1002.5
20260508091549 39 243 0.0 0.0 0.01 0.94 0.01 100 1002.8
20260508090051 39 243 0.0 0.0 0.00 0.94 0.00 100 1002.3
20260508084544 39 243 0.0 2.6 0.00 0.94 0.00 100 1001.8
20260508083042 39 164 0.0 0.0 0.00 0.94 0.00 100 1001.6
20260508081559 40 165 0.0 0.0 0.00 0.94 0.00 100 1001.5
20260508080044 40 165 0.0 0.0 0.00 0.94 0.00 100 1001.6
20260508074538 40 165 0.0 0.0 0.00 0.94 0.00 100 1001.7
20260508073041 40 165 0.0 0.0 0.00 0.94 0.00 100 1001.7
20260508071542 41 165 0.0 0.0 0.00 0.94 0.00 100 1001.7
20260508070035 41 164 0.0 0.0 0.00 0.94 0.00 100 1001.8
20260508064534 40 164 0.0 0.0 0.00 0.94 0.00 100 1001.6
20260508063046 40 164 0.0 0.0 0.00 0.94 0.00 100 1001.8
20260508061531 41 164 0.0 0.0 0.00 0.94 0.00 99 1001.6
20260508060034 41 165 0.0 0.0 0.00 0.94 0.00 99 1001.6
20260508054529 42 208 0.0 0.0 0.00 0.94 0.00 100 1001.4
20260508053026 42 208 0.0 1.7 0.00 0.94 0.00 100 1001.6
20260508051527 42 208 0.0 1.7 0.00 0.94 0.00 100 1001.5
20260508050023 42 211 0.0 0.0 0.00 0.94 0.00 100 1001.6
20260508044527 42 211 0.0 0.0 0.00 0.94 0.00 99 1001.6
20260508043021 43 212 0.0 0.9 0.00 0.94 0.00 100 1001.7
20260508041519 43 196 0.0 0.0 0.00 0.94 0.00 100 1001.4
20260508040017 43 196 0.0 1.7 0.00 0.94 0.00 99 1001.8
20260508034517 44 197 0.9 3.5 0.00 0.94 0.00 100 1001.8
20260508033017 43 199 1.7 4.3 0.00 0.94 0.00 100 1001.9
20260508031512 44 182 2.6 5.2 0.00 0.94 0.00 100 1002.0
20260508030009 44 194 1.7 4.3 0.00 0.94 0.94 99 1002.0
20260508024508 44 181 1.7 4.3 0.00 0.94 0.94 99 1002.2
20260508023008 45 129 1.7 4.3 0.00 0.94 0.94 99 1001.9
20260508021505 45 185 0.9 2.6 0.00 0.94 0.94 99 1002.1
20260508020007 46 185 0.9 2.6 0.00 0.94 0.94 100 1001.8
20260508014508 46 185 0.9 4.3 0.00 0.94 0.94 99 1001.8
20260508013004 47 76 0.0 3.5 0.00 0.94 0.94 99 1001.6
20260508011504 47 182 0.9 2.6 0.00 0.94 0.94 100 1001.4
20260508010004 47 77 0.0 3.5 0.00 0.94 0.94 99 1001.5
20260508004504 49 321 0.0 2.6 0.00 0.94 0.94 99 1001.5
20260508003002 48 291 1.7 3.5 0.00 0.94 0.94 100 1001.7
20260508001502 48 69 0.0 2.6 0.00 0.94 0.94 99 1001.5
20260508000001 48 277 0.9 2.6 0.00 0.94 0.94 99 1001.6
20260507234501 48 54 0.9 2.6 0.00 0.94 0.94 99 1001.6
20260507233100 48 26 0.9 2.6 0.00 0.94 0.94 99 1001.6
20260507231601 48 27 0.0 2.6 0.00 0.94 0.94 99 1001.8
20260507230106 49 6 0.9 3.5 0.00 0.94 0.94 98 1001.7
20260507224610 49 321 0.9 2.6 0.00 0.94 0.94 99 1001.7
20260507223058 48 53 0.9 5.2 0.00 0.94 0.94 98 1001.5
20260507221557 49 33 0.9 2.6 0.00 0.94 0.94 98 1001.8
20260507220057 48 136 1.7 6.1 0.00 0.94 0.94 98 1001.9
20260507214606 50 155 0.0 4.3 0.02 0.94 0.94 98 1002.1
20260507213057 51 104 0.9 6.1 0.06 0.94 0.94 98 1001.8
20260507211601 51 217 5.2 9.6 0.14 0.94 0.94 99 1002.5
20260507210100 51 154 3.5 8.7 0.22 0.94 0.94 98 1002.0
20260507204552 52 140 2.6 7.0 0.28 0.92 0.92 98 1001.7